Regional Weather Roundup
Issued by NWS

Home | Current Version | Previous Version | Graphics & Text | Print | Product List | Glossary On
Versions: 1 2 3 4 5 6 7 8 9 10 11 12 13 14 15 16 17 18 19 20 21 22 23 24 25 26 27 28 29 30 31 32 33 34 35 36 37 38 39 40 41 42 43 44 45 46 47 48 49 50
000
ASUS43 KOAX 141502
RWRNE

WEATHER ROUNDUP FOR NEBRASKA
NATIONAL WEATHER SERVICE OMAHA NE
900 AM CST THU DEC 14 2017

NOTES: SATELLITE DATA IS BEING USED TO AUGMENT CLOUD COVER ABOVE
       12000 FEET.
       "FAIR" INDICATES FEW OR NO CLOUDS BELOW 12,000 FEET WITH NO
       SIGNIFICANT WEATHER AND/OR OBSTRUCTIONS TO VISIBILITY.


NEZ001>004-019>022-054>056-141600-
NEBRASKA PANHANDLE

CITY           SKY/WX    TMP DP  RH WIND       PRES   REMARKS
SCOTTSBLUFF    CLOUDY    38  24  57 NW20G32   30.15R WCI  28
ALLIANCE       CLOUDY    36  22  56 NW32G43   30.10R WCI  23
CHADRON        MOCLDY    35  23  61 NW20G25   30.14R WCI  24
GORDON         CLOUDY    33  28  83 N17G23    30.09S WCI  22
KIMBALL        CLOUDY    33  24  68 NW12      30.15R WCI  25
SIDNEY         MOCLDY    30  23  75 NW8       30.14R WCI  22
$$

NEZ057>060-069>072-079>082-141600-
SOUTHWEST NEBRASKA

CITY           SKY/WX    TMP DP  RH WIND       PRES   REMARKS
NORTH PLATTE   CLOUDY    38  26  62 W9        30.09R WCI  31
IMPERIAL       CLOUDY    36  24  62 NW8       30.12R WCI  30
LEXINGTON      CLOUDY    38  30  72 NW10      30.09R WCI  31
MCCOOK         CLOUDY    38  28  67 W9        30.11F WCI  31
OGALLALA       CLOUDY    38  25  59 W12       30.10S WCI  30
$$

NEZ005>010-023>029-035>040-094-141600-
NORTH CENTRAL NEBRASKA

CITY           SKY/WX    TMP DP  RH WIND       PRES   REMARKS
VALENTINE      LGT SNOW  35  32  88 NW14      30.06R FOG     WCI  26
AINSWORTH      LGT SNOW  33  33 100 NW10      30.04R VSB 1   WCI  25
BROKEN BOW     FLURRIES  36  33  89 NW12G22   30.05S WCI  28
O`NEILL        LGT SNOW  33  32  96 NW9       30.04R WCI  25
ORD            LGT RAIN  36  33  89 NW12      30.04R WCI  28
THEDFORD       CLOUDY    35  32  88 W10       30.07R WCI  27
$$

NEZ041-046>049-061>064-073>077-083>087-141600-
SOUTH CENTRAL NEBRASKA

CITY           SKY/WX    TMP DP  RH WIND       PRES   REMARKS
GRAND ISLAND   MOCLDY    31  26  82 W8        30.08R WCI  23
AURORA         CLOUDY    31  26  83 W8        30.07S WCI  23
HASTINGS       CLOUDY    34  25  69 W10       30.08S WCI  26
HEBRON         CLOUDY    34  27  76 W3        30.10S
HOLDREGE       CLOUDY    35  27  70 W7        30.09R WCI  29
KEARNEY        MIX PCPN  35  29  78 NW7       30.08S WCI  29
$$

NEZ011>018-030>034-042>045-141600-
NORTHEAST NEBRASKA

CITY           SKY/WX    TMP DP  RH WIND       PRES   REMARKS
NORFOLK        CLEAR     33  26  75 W8        30.02R WCI  26
ALBION         PTCLDY    30  26  85 NW3       30.05R
BLAIR          CLOUDY    33  29  86 CALM      30.04R
COLUMBUS       CLEAR     31  25  78 W7        30.06S WCI  24
FREMONT        CLOUDY    34  25  69 SW6       30.05S WCI  29
TEKAMAH        MOSUNNY   32  24  72 CALM      30.05S
WAYNE          CLOUDY    35  27  74 NW7       30.03S WCI  29
$$

NEZ050>053-065>068-078-088>093-141600-
SOUTHEAST NEBRASKA

CITY           SKY/WX    TMP DP  RH WIND       PRES   REMARKS
LINCOLN        CLOUDY    36  26  67 W6        30.09R WCI  31
OMAHA EPPLEY   CLOUDY    34  27  75 CALM      30.07R
BEATRICE       CLOUDY    35  28  74 NW8       30.08S WCI  28
FALLS CITY     CLOUDY    36  26  67 NW5       30.08R WCI  32
NEBRASKA CITY  CLOUDY    35  28  76 NW5       30.08S WCI  31
PLATTSMOUTH    CLOUDY    34  29  82 CALM      30.07R
$$

NEZ044-045-051>053-067-141600-
OMAHA AREA

CITY           SKY/WX    TMP DP  RH WIND       PRES   REMARKS
OMAHA EPPLEY   CLOUDY    34  27  75 CALM      30.07R
BLAIR          CLOUDY    33  29  86 CALM      30.04R
FREMONT        CLOUDY    34  25  69 SW6       30.05S WCI  29
MILLARD        CLOUDY    37  29  74 CALM      30.07R
OFFUTT AFB     CLOUDY    35  26  69 CALM      30.06S
PLATTSMOUTH    CLOUDY    34  29  82 CALM      30.07R
WAHOO          CLOUDY    36  25  64 SW3       30.06R
$$




USA.gov is the U.S. government's official web portal to all federal, state and local government web resources and services.